Powrót do katalogu

ARIANE 42P+ DEB

AktywnyHEO
NORAD 34184·DEBRIS·🇫🇷 France

Wystrzelony Oct 28, 1992 z Guiana Space Centre

Loading…

Następne Przeloty (najbliższe 24 godziny)

TLE

ŚwieżeSource: Space-Track

Epoka: Sep 14, 2026, 11:08 UTC

1 34184U 92072Q   26257.46404597  .00004940  00000-0  10986-2 0  9994
2 34184   7.1246 335.4503 6451244 167.0939 224.3746  3.38548774278639

Śledź ARIANE 42P+ DEB w czasie rzeczywistym z AllMySat

Download on the App Store